EHI
0 0 0 0 0 0 0 0 1 2 2 1 0 0 0 0 0 0 0 0 0 0 0 0 0 0 0 0 0 0 0 0 0 0 0 0 0 0 0 0 0 0 0
0 0 0 0 0 0 0 0 0 1 2 2 1 0 0 0 0 0 0 0 0 0 0 0 0 0 0 0 0 0 0 0 0 0 0 0 0 0 0 0 0 0 0
0 0 0 0 0 0 0 0 0 1 2 3 2 1 0 0 0 0 0 0 0 0 0 0 0 0 0 0 0 0 0 0 0 0 0 0 0 0 0 0 0 0 0
0 0 0 0 0 0 0 0 0 0 1 3 2 1 0 0 0 0 0 0 0 0 0 0 0 0 0 0 0 0 0 0 0 0 0 0 0 0 0 0 0 0 0
0 0 0 0 0 0 0 0 0 0 1 2 2 1 0 0 0 0 0 0 0 0 0 0 0 0 0 0 0 0 0 0 0 0 0 0 0 0 0 0 0 0 0
0 0 0 0 0 0 0 0 0 0 0 1 1 1 0 0 0 0 0 0 0 0 0 0 0 0 0 0 0 0 0 0 0 0 0 0 0 0 0 0 0 0 0
0 0 0 0 0 0 0 0 0 0 0 0 0 0 0 0 0 0 0 0 0 0 0 0 0 0 0 0 0 0 0 0 0 0 0 0 0 0 0 0 0 0 0
0 0 0 0 0 0 0 0 0 0 0 0 0 0 0 0 0 0 0 0 0 0 0 0 0 0 0 0 0 0 0 0 0 0 0 0 0 0 0 0 0 0 0
0 0 0 0 0 0 0 0 0 0 0 0 0 0 0 0 0 0 0 0 0 0 0 0 0 0 0 0 0 0 0 0 0 0 0 0 0 0 0 0 0 0 0
0 0 0 0 0 0 0 0 0 0 0 0 0 0 0 0 0 0 0 0 0 0 0 0 0 0 0 0 0 0 0 0 0 0 0 0 0 0 0 0 0 0 0
0 0 0 0 0 0 0 0 0 0 0 0 0 0 0 0 0 0 0 0 0 0 0 0 0 0 0 0 0 0 0 0 0 0 0 0 0 0 0 0 0 0 0
0 0 0 0 0 0 0 0 0 0 0 0 0 0 0 0 0 0 0 0 0 0 0 0 0 0 0 0 0 0 0 0 0 0 0 0 0 0 0 0 0 0 0
0 0 0 0 0 0 0 0 0 0 0 0 0 0 0 0 0 0 0 0 0 0 0 0 0 0 0 0 0 0 0 0 0 0 0 0 0 0 0 0 0 0 0
0 0 0 0 0 0 0 0 0 0 0 0 0 0 0 0 0 0 0 0 0 0 0 0 0 0 0 0 0 0 0 0 0 0 0 0 0 0 0 0 0 0 0
0 0 0 0 0 0 0 0 0 0 0 0 0 0 0 0 0 0 0 0 0 0 0 0 0 0 0 0 0 0 0 0 0 0 0 0 0 0 0 0 0 0 0
0 0 0 0 0 0 0 0 0 0 0 0 0 0 0 0 0 0 0 0 0 0 0 0 0 0 0 0 0 0 0 0 0 0 0 0 0 0 0 0 0 0 0
0 0 0 0 0 0 0 0 0 0 0 0 0 0 0 0 0 0 0 0 0 0 0 0 0 0 0 0 0 0 0 0 0 0 0 0 0 0 0 0 0 0 0
0 0 0 0 0 0 0 0 0 0 0 0 0 0 0 0 0 0 0 0 0 0 0 0 0 0 0 0 0 0 0 0 0 0 0 0 0 0 0 0 0 0 0
0 0 0 0 0 0 0 0 0 0 0 0 0 0 0 0 0 0 0 0 0 0 0 0 0 0 0 0 0 0 0 0 0 0 0 0 0 0 0 0 0 0 0
0 0 0 0 0 0 0 0 0 0 0 0 0 0 0 0 0 0 0 0 0 0 0 0 0 0 0 0 0 0 0 0 0 0 0 0 0 0 0 0 0 0 0
0 0 0 0 0 0 0 0 0 0 0 0 0 0 0 0 0 0 0 0 0 0 0 0 0 0 0 0 0 0 0 0 0 0 0 0 0 0 0 0 0 0 0
0 0 0 0 0 0 0 0 0 0 0 0 0 0 0 0 0 0 0 0 0 0 0 0 0 0 0 0 0 0 0 0 0 0 0 0 0 0 0 0 0 0 0
0 0 0 0 0 0 0 0 0 0 0 0 0 0 0 0 0 0 0 0 0 0 0 0 0 0 0 0 0 0 0 0 0 0 0 0 0 0 0 0 0 0 0
0 0 0 0 0 0 0 0 0 0 0 0 0 0 0 0 0 0 0 0 0 0 0 0 0 0 0 0 0 0 0 0 0 0 0 0 0 0 0 0 0 0 0
0 0 0 0 0 0 0 0 0 0 0 0 0 0 0 0 0 0 0 0 0 0 0 0 0 0 0 0 0 0 0 0 0 0 0 0 0 0 0 0 0 0 0
0 0 0 0 0 0 0 0 0 0 0 0 0 0 0 0 0 0 0 0 0 0 0 0 0 0 0 0 0 0 0 0 0 0 0 0 0 0 0 0 0 0 0
Wind_Speed
2 4 4 5 6 7 8 9 10 9 10 11 11 12 12 13 13 14 15 14 16 16 14 16 17 14 12 11 10 11 11 11 15 10 5 5 8 8 7 7 7 7 7
3 3 4 5 5 6 7 8 8 9 9 10 10 11 12 12 12 14 15 15 16 17 16 16 17 13 16 13 11 13 12 12 13 15 7 6 9 8 7 7 6 5 6
4 3 4 4 5 6 7 7 7 8 9 9 9 11 11 12 12 13 14 15 15 16 16 17 17 15 16 13 13 13 11 10 11 12 10 6 6 4 5 4 4 5 5
3 3 4 5 6 6 7 7 7 8 8 9 10 11 11 11 12 12 13 14 15 15 15 16 16 16 16 15 13 14 12 11 11 11 10 7 5 4 4 5 5 5 5
4 4 5 6 6 6 6 7 7 7 8 9 9 10 10 10 10 11 12 14 15 15 15 15 16 17 18 15 12 12 12 12 10 10 10 7 6 5 6 5 7 5 4
4 4 5 6 7 7 7 7 7 8 8 8 9 10 11 9 12 14 13 12 13 14 15 14 14 15 17 19 19 18 16 15 13 11 10 10 9 8 7 6 6 5 5
4 5 5 6 7 8 9 8 8 8 8 8 9 9 11 12 13 14 15 13 12 13 14 13 11 10 13 13 15 17 17 18 18 14 13 13 10 9 9 8 8 7 7
5 5 6 6 7 8 8 8 8 7 7 8 9 9 10 11 12 13 13 13 13 13 12 12 12 12 11 12 11 12 13 14 15 14 13 12 9 8 10 10 9 6 3
5 6 7 7 8 8 9 9 8 8 8 7 8 9 10 11 11 11 10 9 10 11 10 10 11 11 13 13 12 12 11 10 9 12 13 11 10 10 9 6 6 5 4
7 7 7 7 7 9 9 9 7 7 8 8 8 8 9 10 10 10 10 7 8 8 8 8 9 11 12 12 12 11 12 10 6 5 6 7 7 8 11 9 8 6 4
8 8 8 7 8 8 8 7 8 7 7 7 8 8 7 8 10 10 10 7 7 7 7 7 6 10 12 12 12 11 13 9 6 6 5 5 4 4 5 5 5 6 6
8 8 9 8 7 7 8 8 7 7 8 8 7 8 6 5 6 8 9 9 8 7 7 6 6 9 11 11 10 10 10 8 4 5 5 5 5 4 3 3 3 2 2
8 9 8 9 7 7 7 7 7 6 6 7 6 7 7 5 5 8 9 9 9 6 6 8 8 9 8 7 8 8 7 5 5 5 5 5 4 4 4 4 3 3 4
8 8 8 8 8 7 6 5 5 5 6 6 6 7 7 7 5 4 4 4 5 5 5 5 7 7 6 5 4 4 4 4 5 5 4 3 3 3 4 4 4 4 3
7 8 8 7 7 7 6 5 6 5 5 7 7 6 7 8 8 9 7 5 4 4 4 4 4 4 3 3 3 2 2 2 3 3 4 4 4 4 3 3 4 4 4
6 7 6 6 6 6 7 7 8 8 10 11 11 10 8 10 13 13 11 10 9 7 4 4 5 4 4 4 4 3 2 3 3 3 3 4 4 5 4 4 3 4 4
6 6 6 6 6 6 6 7 9 9 9 10 11 12 11 12 12 12 11 10 9 6 4 4 5 4 4 4 4 3 3 3 2 3 3 3 3 4 4 5 5 4 4
6 6 6 5 6 6 6 6 7 8 9 8 8 11 12 12 11 11 10 8 5 3 3 4 5 4 4 3 3 3 3 2 2 3 3 3 4 4 4 5 5 5 5
5 5 5 5 5 6 6 6 6 7 7 8 7 8 9 10 9 9 7 4 4 4 4 4 4 4 4 3 3 3 3 3 3 3 3 4 4 4 4 4 4 6 5
4 6 6 5 5 5 5 5 5 6 6 6 7 7 6 6 5 6 4 4 4 4 4 4 3 3 3 3 3 2 2 2 3 3 3 3 3 4 4 5 5 5 4
4 5 6 5 4 5 4 5 5 5 5 6 6 7 10 6 5 5 5 4 4 4 5 4 4 3 2 2 2 2 3 2 2 2 2 3 3 3 4 4 5 4 4
4 4 4 4 4 4 4 4 4 5 5 6 6 6 9 5 4 5 4 4 4 4 4 4 4 3 2 2 2 1 1 1 1 2 2 2 3 3 3 4 5 5 5
3 4 4 4 4 4 4 4 4 4 4 5 5 5 5 4 4 4 5 5 5 5 5 4 4 4 3 2 2 1 1 1 1 2 2 3 3 3 3 4 5 6 6
3 4 4 4 3 3 3 4 4 4 4 4 4 4 4 4 4 5 5 5 5 5 5 4 4 5 6 4 3 2 1 1 0 2 3 4 3 3 4 4 4 5 5
3 3 3 3 3 3 4 4 4 4 4 4 4 4 4 4 4 4 5 5 5 5 6 5 4 4 5 5 4 3 3 2 1 2 3 3 4 4 4 5 4 5 5
3 3 3 3 3 3 3 4 4 4 4 4 4 4 4 4 4 5 5 5 5 5 6 5 6 6 6 4 4 3 3 3 2 2 2 3 4 4 4 4 5 5 5
Wind_Direction
258 253 257 257 255 251 245 243 242 243 238 235 233 232 231 230 228 229 232 231 232 235 233 234 237 234 235 233 230 231 233 235 253 257 222 211 208 216 219 218 221 221 225
295 278 268 270 270 266 262 258 254 252 247 242 240 237 236 235 232 232 235 234 235 236 236 235 238 234 235 234 232 233 234 231 242 255 243 215 218 215 213 213 217 216 221
335 322 304 295 290 281 276 274 267 259 256 251 244 241 240 238 236 235 237 238 238 239 238 236 238 235 236 234 233 234 234 232 234 246 249 226 218 203 206 214 213 217 220
338 330 316 304 292 286 285 284 279 271 264 258 251 246 243 242 240 238 238 241 242 242 240 239 237 234 236 235 234 234 233 232 233 238 243 232 217 190 186 206 223 220 225
341 334 317 310 306 299 295 291 288 281 271 265 261 256 250 245 241 239 240 242 244 245 244 241 239 236 235 233 233 233 230 234 232 234 238 232 215 188 204 198 216 215 220
337 327 324 322 318 315 308 299 294 288 280 273 265 261 257 252 250 242 240 246 247 247 248 246 242 236 236 232 231 229 226 230 233 231 234 232 226 212 204 196 200 197 228
334 328 329 327 322 317 313 310 302 295 290 283 275 269 264 261 257 249 241 245 249 249 248 248 247 242 234 236 234 232 233 232 229 230 235 233 226 210 196 200 201 203 215
330 328 328 326 319 316 314 310 306 302 295 289 286 281 278 277 271 261 252 247 252 252 249 246 246 244 235 229 233 235 236 236 231 232 238 239 228 210 200 201 198 197 179
331 327 324 321 315 314 312 308 306 305 303 299 297 292 287 287 283 275 267 261 260 260 257 252 248 248 241 225 227 234 238 241 235 227 230 234 225 208 188 175 174 174 199
327 320 317 315 310 308 305 303 302 300 297 300 297 293 288 288 290 282 269 265 268 270 269 261 251 247 245 228 229 232 237 238 222 222 226 231 227 212 197 197 187 186 183
324 320 317 316 311 307 306 305 306 304 299 296 294 293 288 287 292 285 273 264 267 272 269 268 262 251 245 238 232 234 235 226 211 210 214 211 206 203 200 198 195 193 190
327 322 319 317 315 313 310 309 308 304 300 298 298 298 294 289 288 290 283 272 270 270 272 273 269 259 248 240 237 239 227 213 204 201 206 207 202 199 186 166 161 163 175
327 322 319 317 315 314 310 308 309 306 299 299 299 299 302 302 295 290 287 283 276 272 274 276 279 274 264 253 244 231 219 213 203 208 215 216 205 180 150 136 119 109 88
320 318 319 319 317 316 310 304 303 304 299 298 298 298 302 305 305 304 298 297 295 289 288 286 282 278 270 263 256 236 232 224 212 215 209 199 171 161 165 161 157 153 142
314 315 317 316 313 313 308 298 296 288 287 291 293 293 298 300 305 308 305 300 295 287 291 295 292 290 287 275 262 247 232 220 223 223 201 188 178 175 176 163 157 159 171
312 314 315 314 311 309 309 307 299 296 303 299 296 293 292 294 301 303 304 303 302 295 289 281 280 274 266 260 252 246 235 229 222 207 202 196 189 184 176 167 167 175 179
300 304 306 309 309 310 311 312 313 316 314 311 311 309 305 306 305 305 306 307 304 296 284 274 272 270 268 266 258 249 242 226 203 199 199 191 182 178 174 174 173 173 176
298 298 300 301 302 304 305 304 304 308 314 316 317 317 317 317 317 316 313 314 305 295 278 273 272 272 268 261 258 255 245 220 203 203 198 184 175 173 175 179 180 177 172
303 304 302 299 300 300 301 300 299 300 302 307 316 323 326 323 323 331 335 321 302 297 291 281 276 273 269 260 252 244 231 218 206 197 191 182 174 173 178 177 174 171 169
297 301 301 299 301 303 304 304 305 305 306 308 312 319 329 332 330 334 340 331 321 314 311 303 297 293 279 265 251 240 229 212 194 193 191 179 171 175 178 174 169 167 172
297 300 301 300 298 299 301 303 305 305 305 306 308 319 333 326 321 322 326 327 322 318 317 313 311 309 307 304 284 253 232 215 195 188 183 175 174 175 170 166 162 157 151
289 292 295 293 297 301 301 302 301 302 305 308 313 323 334 334 328 328 329 328 325 321 318 315 317 317 311 299 285 265 254 241 205 178 170 168 170 168 160 156 151 148 146
285 289 291 292 294 301 303 304 303 303 306 309 315 323 330 331 331 330 329 329 331 331 330 330 328 328 331 329 318 279 243 241 215 172 161 161 158 155 153 153 151 148 152
284 285 288 293 299 302 303 304 305 308 310 312 316 320 324 324 325 327 328 330 332 334 338 337 334 338 343 344 344 342 332 328 126 149 154 155 153 149 145 145 146 149 150
284 285 289 294 301 304 306 307 309 311 313 314 318 321 323 326 327 330 332 333 335 337 340 338 334 337 344 347 349 352 3 20 61 115 136 142 143 143 141 141 141 140 143
288 288 288 292 296 299 301 304 308 313 314 315 318 321 323 325 326 328 331 336 339 338 337 336 339 339 339 340 350 2 17 33 54 90 120 129 134 137 137 136 138 140 144